Weather History for Rochelle, IL

Change the Weather History Date:

Monday, March 26, 2012

  Actual Average (KRFD) Record (KRFD)
Temperature  
Mean Temperature 42 °F 41 °F  
Max Temperature 47 °F 52 °F 81 °F (1907)
Min Temperature 36 °F 31 °F 5 °F (1960)
Degree Days  
Heating Degree Days 24 24  
Month to date heating degree days 751  
Since 1 July heating degree days 5753  
Cooling Degree Days 0 0  
Month to date cooling degree days 0  
Year to date cooling degree days 0  
Moisture  
Dew Point 30 °F    
Average Humidity 65    
Maximum Humidity 87    
Minimum Humidity 37    
Precipitation  
Precipitation 0.00 in 0.09 in 1.38 in (1916)
Month to date precipitation 1.86  
Year to date precipitation 4.64  
Snow  
Snow 0.00 in 0.10 in 2.20 in (1928)
Month to date snowfall 4.3  
Since 1 July snowfall 35.3  
Snow Depth -    
Sea Level Pressure  
Sea Level Pressure 30.29 in    
Wind  
Wind Speed 17 mph (ENE)    
Max Wind Speed 24 mph    
Max Gust Speed 31 mph    
Visibility 9 miles    
Events Rain , Snow    
T = Trace of Precipitation, MM = Missing Value Source: NWS Daily Summary

Daily Weather History Graph

Daily Weather History Graph

Search for Another Location

Airport:

Trip Planner

Search our weather history database for the weather conditions in past years. The results will help you decide how hot, cold, wet, or windy it might be!

Date:

Astronomy

Mar. 26, 2012 Rise Set
Actual Time 6:48 AM CDT 7:15 PM CDT
Civil Twilight 6:20 AM CDT 7:43 PM CDT
Nautical Twilight 5:47 AM CDT 8:16 PM CDT
Astronomical Twilight 5:13 AM CDT 8:50 PM CDT
Moon 8:33 AM CDT (3/26) 11:30 PM CDT (3/26)
Length of Visible Light 13h 23m
Length of Day
12h 27m
Waxing Crescent, 15% of the Moon is Illuminated
Mar 26
Waxing Crescent
Mar 30
First Quarter
Apr 6
Full
Apr 13
Last Quarter
Apr 21
New

Hourly Weather History & Observations

Time (CDT) Temp. Windchill Dew Point Humidity Pressure Visibility Wind Dir Wind Speed Gust Speed Precip Events Conditions
12:15 AM 47.1 °F - 43.2 °F 86% 30.16 in 4.0 mi ENE 13.8 mph 21.9 mph N/A   Light Drizzle
12:35 AM 45.7 °F 38.8 °F 41.9 °F 87% 30.17 in 5.0 mi ENE 16.1 mph 20.7 mph N/A   Light Drizzle
12:55 AM 45.7 °F 38.8 °F 41.0 °F 84% 30.19 in 5.0 mi NE 16.1 mph 24.2 mph N/A   Drizzle
1:15 AM 45.3 °F 37.6 °F 39.7 °F 81% 30.19 in 7.0 mi NE 19.6 mph 24.2 mph N/A   Light Drizzle
1:35 AM 44.4 °F 36.9 °F 37.9 °F 78% 30.19 in 10.0 mi NE 17.3 mph 21.9 mph N/A   Overcast
1:55 AM 43.7 °F 35.4 °F 37.6 °F 79% 30.20 in 10.0 mi ENE 19.6 mph 23.0 mph N/A   Overcast
2:15 AM 43.0 °F 34.0 °F 35.6 °F 75% 30.21 in 10.0 mi ENE 21.9 mph 26.5 mph N/A   Overcast
2:35 AM 41.4 °F 32.1 °F 35.8 °F 81% 30.22 in 10.0 mi NE 20.7 mph 25.3 mph N/A   Overcast
2:55 AM 39.4 °F 29.2 °F 35.1 °F 84% 30.24 in 10.0 mi NE 21.9 mph 25.3 mph N/A   Mostly Cloudy
3:15 AM 39.4 °F 30.7 °F 35.1 °F 84% 30.24 in 10.0 mi NE 16.1 mph 24.2 mph N/A   Overcast
3:35 AM 39.0 °F 29.0 °F 34.2 °F 83% 30.25 in 10.0 mi ENE 20.7 mph 27.6 mph N/A   Overcast
3:55 AM 38.7 °F 28.3 °F 32.9 °F 80% 30.26 in 7.0 mi NE 21.9 mph 27.6 mph N/A   Overcast
4:15 AM 38.7 °F 29.8 °F 33.1 °F 80% 30.26 in 7.0 mi NE 16.1 mph 21.9 mph N/A   Overcast
4:35 AM 38.3 °F 28.1 °F 31.6 °F 77% 30.27 in 7.0 mi NE 20.7 mph 31.1 mph N/A   Overcast
4:55 AM 37.9 °F 26.8 °F 31.1 °F 76% 30.28 in 4.0 mi NE 24.2 mph 27.6 mph N/A   Haze
5:15 AM 37.8 °F 28.6 °F 31.8 °F 79% 30.28 in 10.0 mi NE 16.1 mph 26.5 mph N/A   Overcast
5:35 AM 37.4 °F 26.9 °F 30.9 °F 77% 30.29 in 7.0 mi NE 20.7 mph 27.6 mph N/A   Overcast
5:55 AM 36.9 °F 26.5 °F 30.9 °F 79% 30.30 in 10.0 mi NE 19.6 mph 26.5 mph N/A   Overcast
6:15 AM 36.9 °F 25.6 °F 29.8 °F 76% 30.29 in 10.0 mi ENE 23.0 mph 28.8 mph N/A   Overcast
6:35 AM 36.7 °F 25.7 °F 29.8 °F 76% 30.29 in 10.0 mi ENE 21.9 mph 29.9 mph N/A   Overcast
6:55 AM 36.7 °F 26.3 °F 30.2 °F 77% 30.30 in 10.0 mi NE 19.6 mph 25.3 mph N/A Rain Light Rain
7:15 AM 36.5 °F 26.3 °F 30.9 °F 80% 30.32 in 10.0 mi NE 18.4 mph 27.6 mph N/A Rain Rain
7:35 AM 36.5 °F 26.7 °F 31.1 °F 81% 30.32 in 10.0 mi ENE 17.3 mph 25.3 mph N/A Snow Light Snow
7:55 AM 36.0 °F 26.0 °F 32.2 °F 86% 30.34 in 10.0 mi ENE 17.3 mph - N/A Rain Light Rain
8:15 AM 36.3 °F 25.5 °F 31.6 °F 83% 30.33 in 10.0 mi ENE 20.7 mph 25.3 mph N/A   Light Drizzle
8:35 AM 36.3 °F 26.4 °F 31.8 °F 84% 30.34 in 10.0 mi ENE 17.3 mph - N/A Rain Light Rain
8:55 AM 36.7 °F 27.2 °F 32.0 °F 83% 30.35 in 10.0 mi ENE 16.1 mph 20.7 mph N/A   Overcast
9:15 AM 37.4 °F 27.8 °F 31.8 °F 80% 30.35 in 10.0 mi ENE 17.3 mph - N/A   Mostly Cloudy
9:35 AM 37.9 °F 28.9 °F 31.1 °F 76% 30.36 in 10.0 mi ENE 16.1 mph 21.9 mph N/A   Mostly Cloudy
9:55 AM 39.6 °F 30.6 °F 31.6 °F 73% 30.36 in 10.0 mi ENE 17.3 mph - N/A   Scattered Clouds
10:15 AM 41.2 °F 33.0 °F 30.6 °F 66% 30.36 in 10.0 mi ENE 16.1 mph 24.2 mph N/A   Mostly Cloudy
10:35 AM 40.3 °F 31.9 °F 28.6 °F 63% 30.35 in 10.0 mi East 16.1 mph 21.9 mph N/A   Mostly Cloudy
10:55 AM 40.5 °F 31.8 °F 27.5 °F 60% 30.37 in 10.0 mi ENE 17.3 mph - N/A   Mostly Cloudy
11:15 AM 41.9 °F 34.3 °F 27.9 °F 58% 30.37 in 10.0 mi ENE 15.0 mph 19.6 mph N/A   Mostly Cloudy
11:55 AM 43.2 °F 35.9 °F 26.6 °F 52% 30.37 in 10.0 mi East 15.0 mph - N/A   Scattered Clouds
12:15 PM 44.4 °F 37.5 °F 27.1 °F 51% 30.35 in 10.0 mi East 15.0 mph 18.4 mph N/A   Mostly Cloudy
12:35 PM 45.1 °F 38.8 °F 26.1 °F 47% 30.35 in 10.0 mi East 13.8 mph 21.9 mph N/A   Overcast
12:55 PM 46.2 °F 40.1 °F 25.9 °F 45% 30.34 in 10.0 mi East 13.8 mph 18.4 mph N/A   Mostly Cloudy
1:15 PM 46.8 °F - 24.8 °F 42% 30.34 in 10.0 mi East 13.8 mph 23.0 mph N/A   Overcast
1:35 PM 46.8 °F - 25.7 °F 44% 30.33 in 10.0 mi East 13.8 mph 21.9 mph N/A   Overcast
1:55 PM 46.6 °F - 24.4 °F 42% 30.34 in 10.0 mi East 15.0 mph 21.9 mph N/A   Overcast
2:15 PM 46.6 °F - 25.3 °F 43% 30.33 in 10.0 mi East 13.8 mph - N/A   Overcast
2:35 PM 46.4 °F 40.4 °F 24.6 °F 42% 30.32 in 10.0 mi East 13.8 mph 18.4 mph N/A   Overcast
2:55 PM 46.4 °F 40.7 °F 23.7 °F 41% 30.31 in 10.0 mi East 12.7 mph - N/A   Overcast
3:15 PM 46.2 °F 39.5 °F 21.9 °F 38% 30.31 in 10.0 mi East 16.1 mph - N/A   Overcast
3:35 PM 46.9 °F - 21.6 °F 37% 30.30 in 10.0 mi East 16.1 mph - N/A   Overcast
3:55 PM 47.1 °F - 22.5 °F 38% 30.30 in 10.0 mi East 10.4 mph 18.4 mph N/A   Overcast
4:15 PM 46.8 °F - 25.0 °F 43% 30.30 in 10.0 mi East 15.0 mph 18.4 mph N/A   Overcast
4:35 PM 46.6 °F - 23.9 °F 41% 30.30 in 10.0 mi East 15.0 mph - N/A   Overcast
4:55 PM 47.1 °F - 25.2 °F 42% 30.29 in 10.0 mi ENE 16.1 mph 20.7 mph N/A   Overcast
5:15 PM 46.9 °F - 26.6 °F 45% 30.27 in 10.0 mi East 17.3 mph - N/A   Overcast
5:35 PM 46.4 °F 39.8 °F 26.4 °F 46% 30.26 in 10.0 mi East 16.1 mph 19.6 mph N/A   Overcast
5:55 PM 46.0 °F 39.0 °F 26.2 °F 46% 30.25 in 10.0 mi East 17.3 mph 20.7 mph N/A   Overcast
6:15 PM 45.3 °F 39.3 °F 27.7 °F 50% 30.26 in 10.0 mi East 12.7 mph - N/A   Overcast
6:35 PM 45.0 °F 39.7 °F 28.6 °F 53% 30.27 in 10.0 mi East 10.4 mph - N/A   Overcast
6:55 PM 44.2 °F 38.4 °F 29.1 °F 55% 30.27 in 10.0 mi East 11.5 mph - N/A   Overcast
7:15 PM 43.7 °F 36.6 °F 29.3 °F 57% 30.27 in 10.0 mi East 15.0 mph - N/A   Overcast
7:35 PM 43.2 °F 35.9 °F 29.5 °F 59% 30.26 in 10.0 mi East 15.0 mph - N/A   Overcast
7:55 PM 42.8 °F 36.2 °F 29.1 °F 58% 30.27 in 10.0 mi East 12.7 mph - N/A   Overcast
8:15 PM 42.3 °F 34.8 °F 28.9 °F 59% 30.27 in 10.0 mi East 15.0 mph 20.7 mph N/A   Overcast
8:35 PM 42.1 °F 34.5 °F 28.8 °F 59% 30.27 in 10.0 mi East 15.0 mph 19.6 mph N/A   Overcast
8:55 PM 41.7 °F 34.8 °F 28.9 °F 61% 30.27 in 10.0 mi East 12.7 mph 19.6 mph N/A   Overcast
9:15 PM 41.0 °F 33.5 °F 28.9 °F 62% 30.27 in 10.0 mi East 13.8 mph 17.3 mph N/A   Mostly Cloudy
9:35 PM 41.0 °F 33.9 °F 28.6 °F 61% 30.27 in 10.0 mi East 12.7 mph - N/A   Scattered Clouds
9:55 PM 41.0 °F 34.3 °F 28.8 °F 62% 30.27 in 10.0 mi East 11.5 mph - N/A   Clear
10:15 PM 40.6 °F 33.4 °F 29.3 °F 64% 30.26 in 10.0 mi East 12.7 mph - N/A   Clear
10:35 PM 40.8 °F 33.7 °F 30.2 °F 66% 30.25 in 10.0 mi East 12.7 mph 17.3 mph N/A   Clear
10:55 PM 41.0 °F 32.2 °F 30.4 °F 66% 30.24 in 10.0 mi East 18.4 mph 21.9 mph N/A   Clear
11:15 PM 41.0 °F 33.1 °F 31.1 °F 68% 30.23 in 10.0 mi East 15.0 mph - N/A   Clear
11:35 PM 41.0 °F 32.8 °F 32.0 °F 70% 30.21 in 10.0 mi ESE 16.1 mph - N/A   Clear
11:55 PM 41.5 °F 33.2 °F 31.8 °F 68% 30.18 in 10.0 mi ESE 17.3 mph 21.9 mph N/A   Clear